When you browse on this site, cookies collect data to enhance your experience and personalize the content and advertising you see.
Visit our Privacy Policy to learn more. By continuing to use the site, you agree to this use of cookies and data.

Hourly Weather Bandar Seri Begawan

Today, 11 August, Tuesday

Time Temperature Precipitation Wind Pressure Humidity
00:00 +26°C° 0 mm 0 mps 756 mmHg 81%
01:00 +28°C° 0 mm 1 mps 756 mmHg 81%
02:00 +27°C° 0 mm 1 mps 756 mmHg 83%
03:00 +27°C° 0.2 mm 1 mps 756 mmHg 83%
04:00 +27°C° 0.2 mm 1 mps 756 mmHg 84%
05:00 +27°C° 0.2 mm 1 mps 756 mmHg 84%
06:00 +28°C° 0 mm 1 mps 756 mmHg 80%
07:00 +28°C° 0 mm 1 mps 756 mmHg 77%
08:00 +29°C° 0 mm 1 mps 756 mmHg 76%
09:00 +32°C° 0 mm 1 mps 756 mmHg 67%
10:00 +34°C° 0 mm 1 mps 756 mmHg 58%
11:00 +36°C° 0 mm 1 mps 756 mmHg 50%
12:00 +36°C° 0 mm 1 mps 755 mmHg 50%
13:00 +36°C° 0 mm 2 mps 755 mmHg 51%
14:00 +36°C° 0 mm 2 mps 754 mmHg 51%
15:00 +35°C° 0.1 mm 2 mps 754 mmHg 55%
16:00 +35°C° 0.1 mm 3 mps 754 mmHg 59%
17:00 +34°C° 0.1 mm 3 mps 754 mmHg 64%
18:00 +31°C° 0.2 mm 2 mps 754 mmHg 69%
19:00 +30°C° 0.2 mm 2 mps 755 mmHg 75%
20:00 +29°C° 0.2 mm 1 mps 755 mmHg 81%
21:00 +29°C° 0.2 mm 1 mps 756 mmHg 82%
22:00 +29°C° 0.2 mm 1 mps 756 mmHg 83%
23:00 +29°C° 0.2 mm 1 mps 757 mmHg 83%

Tomorrow, 12 August, Wednesday

Time Temperature Precipitation Wind Pressure Humidity
00:00 +28°C° 0.3 mm 1 mps 756 mmHg 85%
01:00 +28°C° 0.3 mm 1 mps 756 mmHg 86%
02:00 +27°C° 0.3 mm 1 mps 756 mmHg 88%
03:00 +27°C° 0.2 mm 1 mps 756 mmHg 88%
04:00 +27°C° 0.2 mm 1 mps 755 mmHg 89%
05:00 +26°C° 0.2 mm 1 mps 755 mmHg 89%
06:00 +27°C° 0.1 mm 1 mps 756 mmHg 87%
07:00 +28°C° 0.1 mm 1 mps 756 mmHg 84%
08:00 +29°C° 0.1 mm 1 mps 756 mmHg 82%
09:00 +31°C° 0 mm 1 mps 756 mmHg 71%
10:00 +33°C° 0 mm 1 mps 756 mmHg 61%
11:00 +34°C° 0 mm 0 mps 756 mmHg 51%
12:00 +35°C° 0 mm 1 mps 756 mmHg 51%
13:00 +36°C° 0 mm 2 mps 755 mmHg 52%
14:00 +36°C° 0 mm 3 mps 755 mmHg 52%
15:00 +34°C° 1.2 mm 3 mps 755 mmHg 63%
16:00 +31°C° 1.2 mm 3 mps 754 mmHg 73%
17:00 +29°C° 1.2 mm 3 mps 754 mmHg 84%
18:00 +28°C° 5 mm 3 mps 755 mmHg 88%
19:00 +26°C° 5 mm 3 mps 755 mmHg 92%
20:00 +25°C° 5 mm 3 mps 756 mmHg 97%
21:00 +25°C° 0.4 mm 3 mps 757 mmHg 96%
22:00 +25°C° 0.4 mm 3 mps 757 mmHg 95%
23:00 +25°C° 0.4 mm 2 mps 758 mmHg 94%

Day after tomorrow, 13 August, Thursday

Time Temperature Precipitation Wind Pressure Humidity
00:00 +25°C° 0.2 mm 2 mps 757 mmHg 94%
01:00 +25°C° 0.2 mm 2 mps 757 mmHg 93%
02:00 +25°C° 0.2 mm 2 mps 757 mmHg 93%
03:00 +25°C° 0.3 mm 2 mps 756 mmHg 93%
04:00 +25°C° 0.3 mm 1 mps 756 mmHg 93%
05:00 +25°C° 0.3 mm 1 mps 755 mmHg 93%
06:00 +26°C° 0.1 mm 1 mps 756 mmHg 92%
07:00 +26°C° 0.1 mm 1 mps 756 mmHg 90%
08:00 +27°C° 0.1 mm 1 mps 757 mmHg 89%
09:00 +29°C° 0 mm 1 mps 757 mmHg 78%
10:00 +31°C° 0 mm 1 mps 757 mmHg 68%
11:00 +32°C° 0 mm 0 mps 756 mmHg 57%
12:00 +33°C° 0.1 mm 1 mps 756 mmHg 62%
13:00 +32°C° 0.1 mm 1 mps 755 mmHg 67%
14:00 +31°C° 0.1 mm 2 mps 755 mmHg 72%
15:00 +30°C° 1 mm 2 mps 754 mmHg 77%
16:00 +28°C° 1 mm 1 mps 754 mmHg 82%
17:00 +27°C° 1 mm 1 mps 754 mmHg 88%
18:00 +27°C° 0.9 mm 1 mps 754 mmHg 89%
19:00 +27°C° 0.9 mm 2 mps 755 mmHg 90%
20:00 +27°C° 0.9 mm 2 mps 755 mmHg 91%
21:00 +27°C° 0.5 mm 2 mps 756 mmHg 92%
22:00 +27°C° 0.5 mm 2 mps 756 mmHg 92%
23:00 +27°C° 0.5 mm 2 mps 757 mmHg 92%

14 August, Friday

Time Temperature Precipitation Wind Pressure Humidity
00:00 +26°C° 0 mm 1 mps 756 mmHg 92%
01:00 +26°C° 0 mm 1 mps 756 mmHg 92%
02:00 +26°C° 0 mm 1 mps 755 mmHg 92%
03:00 +26°C° 0.3 mm 1 mps 755 mmHg 92%
04:00 +26°C° 0.3 mm 1 mps 755 mmHg 93%
05:00 +26°C° 0.3 mm 1 mps 755 mmHg 93%
06:00 +26°C° 0.2 mm 1 mps 755 mmHg 92%
07:00 +27°C° 0.2 mm 1 mps 756 mmHg 91%
08:00 +27°C° 0.2 mm 1 mps 756 mmHg 90%
09:00 +28°C° 0.2 mm 1 mps 756 mmHg 83%
10:00 +30°C° 0.2 mm 1 mps 756 mmHg 75%
11:00 +32°C° 0.2 mm 1 mps 756 mmHg 68%
12:00 +32°C° 0.4 mm 1 mps 755 mmHg 69%
13:00 +32°C° 0.4 mm 1 mps 755 mmHg 70%
14:00 +32°C° 0.4 mm 1 mps 754 mmHg 72%
15:00 +31°C° 0.4 mm 1 mps 754 mmHg 74%
16:00 +31°C° 0.4 mm 1 mps 753 mmHg 76%
17:00 +30°C° 0.4 mm 1 mps 753 mmHg 78%
18:00 +30°C° 0.2 mm 1 mps 753 mmHg 80%
19:00 +29°C° 0.2 mm 1 mps 754 mmHg 82%
20:00 +28°C° 0.2 mm 1 mps 755 mmHg 85%
21:00 +27°C° 0 mm 1 mps 755 mmHg 85%
22:00 +27°C° 0 mm 1 mps 756 mmHg 86%
23:00 +27°C° 0 mm 1 mps 756 mmHg 86%

15 August, Saturday

Time Temperature Precipitation Wind Pressure Humidity
00:00 +27°C° 0 mm 1 mps 756 mmHg 87%
01:00 +27°C° 0 mm 1 mps 755 mmHg 88%
02:00 +27°C° 0 mm 1 mps 755 mmHg 89%
03:00 +27°C° 0.5 mm 1 mps 755 mmHg 90%
04:00 +26°C° 0.5 mm 1 mps 755 mmHg 91%
05:00 +26°C° 0.5 mm 1 mps 755 mmHg 92%
06:00 +27°C° 0.1 mm 1 mps 755 mmHg 90%
07:00 +27°C° 0.1 mm 1 mps 755 mmHg 88%
08:00 +28°C° 0.1 mm 1 mps 756 mmHg 87%
09:00 +29°C° 0 mm 1 mps 756 mmHg 79%
10:00 +31°C° 0 mm 1 mps 756 mmHg 71%
11:00 +31°C° 0 mm 0 mps 755 mmHg 63%
12:00 +33°C° 0 mm 1 mps 755 mmHg 62%
13:00 +34°C° 0 mm 2 mps 754 mmHg 60%
14:00 +35°C° 0 mm 2 mps 753 mmHg 59%
15:00 +34°C° 0.6 mm 2 mps 753 mmHg 65%
16:00 +32°C° 0.6 mm 2 mps 753 mmHg 71%
17:00 +31°C° 0.6 mm 2 mps 753 mmHg 78%
18:00 +30°C° 0.6 mm 2 mps 754 mmHg 81%
19:00 +29°C° 0.6 mm 1 mps 754 mmHg 84%
20:00 +28°C° 0.6 mm 1 mps 755 mmHg 87%
21:00 +27°C° 0.1 mm 1 mps 755 mmHg 88%
22:00 +25°C° 0.1 mm 0 mps 756 mmHg 88%
23:00 +25°C° 0.1 mm 0 mps 756 mmHg 89%

16 August, Sunday

Time Temperature Precipitation Wind Pressure Humidity
00:00 +27°C° 0.1 mm 1 mps 756 mmHg 90%
01:00 +27°C° 0.1 mm 1 mps 755 mmHg 91%
02:00 +26°C° 0.1 mm 1 mps 755 mmHg 93%
03:00 +26°C° 0.6 mm 1 mps 755 mmHg 93%
04:00 +26°C° 0.6 mm 1 mps 755 mmHg 94%
05:00 +26°C° 0.6 mm 1 mps 755 mmHg 94%
06:00 +26°C° 0.4 mm 1 mps 755 mmHg 92%
07:00 +27°C° 0.4 mm 1 mps 755 mmHg 89%
08:00 +28°C° 0.4 mm 1 mps 756 mmHg 87%
09:00 +30°C° 0 mm 1 mps 756 mmHg 78%
10:00 +32°C° 0 mm 1 mps 756 mmHg 68%
11:00 +32°C° 0 mm 0 mps 755 mmHg 59%
12:00 +33°C° 0.4 mm 1 mps 755 mmHg 63%
13:00 +34°C° 0.4 mm 2 mps 754 mmHg 68%
14:00 +33°C° 0.4 mm 3 mps 753 mmHg 72%
15:00 +32°C° 0.7 mm 2 mps 753 mmHg 74%
16:00 +31°C° 0.7 mm 2 mps 753 mmHg 76%
17:00 +31°C° 0.7 mm 2 mps 753 mmHg 78%
18:00 +30°C° 0.5 mm 1 mps 753 mmHg 81%
19:00 +29°C° 0.5 mm 1 mps 754 mmHg 83%
20:00 +28°C° 0.5 mm 1 mps 755 mmHg 86%
21:00 +28°C° 1.3 mm 1 mps 755 mmHg 87%
22:00 +27°C° 1.3 mm 1 mps 755 mmHg 88%
23:00 +27°C° 1.3 mm 1 mps 756 mmHg 90%
Show more